Tracking 19720 objects as of 27-Jun-2019
HD Live streaming from Space Station
objects crossing your sky now

OPS 9321 (IDSCS 8)

Track OPS 9321 (IDSCS 8) now!
OPS 9321 (IDSCS 8) is classified as:


NORAD ID: 2645
Int'l Code: 1967-003A
Perigee: 33,532.9 km
Apogee: 33,825.5 km
Inclination: 3.7 °
Period: 1,329.4 minutes
Semi major axis: 40050 km
RCS: 0.3981 m2 (medium)
Launch date: January 18, 1967
Source: United States (US)
Launch site: AIR FORCE EASTERN TEST RANGE (AFETR)
aabbcc
Your satellite tracking list
Your tracking list is empty




NASA's NSSDC Master Catalog

Two Line Element Set (TLE):
1  2645U 67003A   19177.17629205 -.00000066  00000-0  00000+0 0  9992
2  2645   3.7455  58.3452 0036529  52.1146  64.2982  1.08316796206846
Source of the keplerian elements: AFSPC